Regional Weather Roundup
Issued by NWS

Home | Current Version | Previous Version | Text Only | Print | Product List | Glossary Off
Versions: 1 2 3 4 5 6 7 8 9 10 11 12 13 14 15 16 17 18 19 20 21 22 23 24 25 26 27 28 29 30 31 32 33 34 35 36 37 38 39 40 41 42 43 44 45 46 47 48 49 50

000
ASUS43 KBIS 200310
RWRND

NORTH DAKOTA REGIONAL WEATHER ROUNDUP
NATIONAL WEATHER SERVICE BISMARCK ND
1000 PM CDT TUE AUG 19 2014

NOTE: "FAIR" INDICATES FEW OR NO CLOUDS BELOW 12,000 FEET WITH NO
SIGNIFICANT WEATHER AND/OR OBSTRUCTIONS TO VISIBILITY.


NDZ001>003-009>011-017-200400-
NORTHWEST NORTH DAKOTA

CITY           SKY/WX    TMP DP  RH WIND       PRES   REMARKS
WILLISTON      CLEAR     79  60  52 SE12      29.65S
MINOT          CLEAR     68  60  75 E5        29.71R
MINOT AFB      CLEAR     68  63  85 E7        29.70S
$$

NDZ018>021-031>035-040>046-200400-
SOUTHWEST NORTH DAKOTA

CITY           SKY/WX    TMP DP  RH WIND       PRES   REMARKS
BISMARCK       MOCLDY    72  64  76 E7        29.72S
DICKINSON      PTCLDY    69  60  73 S6        29.70R
GARRISON         N/A     73  65  75 SE9       29.71S
HETTINGER ARPT MOCLDY    72  57  59 SE9       29.74R
$$

NDZ004>008-012>016-024-026-027-054-200400-
NORTHEAST NORTH DAKOTA

CITY           SKY/WX    TMP DP  RH WIND       PRES   REMARKS
GRAND FORKS    CLEAR     73  64  73 E7        29.75R
GRND FRKS AFB  CLEAR     71  68  91 SE6       29.76R
DEVILS LAKE    CLEAR     73  64  73 SE6       29.74R
$$

NDZ022-023-025-028>030-036>039-047>053-200400-
SOUTHEAST NORTH DAKOTA

CITY           SKY/WX    TMP DP  RH WIND       PRES   REMARKS
FARGO          CLEAR     72  64  76 SE3       29.76R
JAMESTOWN      CLEAR     68  64  87 SE5       29.76R
$$



USA.gov is the U.S. government's official web portal to all federal, state and local government web resources and services.